Regional Weather Roundup
Issued by NWS Cleveland, OH

Home | Current Version | Previous Version | Text Only | Print | Product List | Glossary On
Versions: 1 2 3 4 5 6 7 8 9 10 11 12 13 14 15 16 17 18 19 20 21 22 23 24 25 26 27 28 29 30 31 32 33 34 35 36 37 38 39 40 41 42 43 44 45 46 47 48 49 50
000
ASUS41 KCLE 010310
RWRCLE
OHIO REGIONAL WEATHER ROUNDUP
NATIONAL WEATHER SERVICE CLEVELAND, OH
1100 PM EDT FRI OCT 31 2014

NOTE: "FAIR" INDICATES FEW OR NO CLOUDS BELOW 12,000 FEET WITH NO
SIGNIFICANT WEATHER AND/OR OBSTRUCTIONS TO VISIBILITY.

OHZ001>008-015>018-024>027-034-035-043-044-010400-
   NORTHWEST OHIO

CITY           SKY/WX    TMP DP  RH WIND       PRES   REMARKS
DEFIANCE       LGT SNOW  35  28  75 N17G32    30.12R WCI  25
FINDLAY        LGT SNOW  34  31  88 N20G28    30.02R FOG     WCI  23
TOLEDO EXPRESS LGT SNOW  33  31  92 N17       30.07R FOG     WCI  22
TOLEDO EXEC    MIX PCPN  36  32  85 N20G32    30.05R
LIMA           LGT SNOW  34  32  92 N18G30    30.04R WCI  23
$$

OHZ009>014-019>023-028>033-038-089-010400-
   NORTHEAST OHIO

CITY           SKY/WX    TMP DP  RH WIND       PRES   REMARKS
CLE-HOPKINS    LGT RAIN  43  40  89 NW3       29.95S
CLE-LAKEFRONT    N/A    N/A N/A N/A MISG        N/A
CUY CO. ARPT   LGT RAIN  45  43  93 CALM      29.93R FOG
LORAIN-ELYRIA  LGT RAIN  42  41  96 NE3       29.93R FOG
ASHTABULA      CLOUDY    43  41  93 CALM      29.93R FOG
AKRON-CANTON   CLOUDY    43  39  86 N3        29.90S
WOOSTER        LGT RAIN  43  39  86 N6        29.92R FOG
MANSFIELD      LGT RAIN  39  38  96 NW10      29.92R
YOUNGSTOWN     LGT RAIN  42  40  92 E3        29.91R FOG
$$

OHZ042-051>053-060>062-070>072-077>081-010400-
  SOUTHWEST OHIO

CITY           SKY/WX    TMP DP  RH WIND       PRES   REMARKS
CINC-COVINGTON CLOUDY    37  33  85 N23G33    30.00R
CINC-LUNKEN    CLOUDY    39  34  82 N16G30    30.02R
HAMILTON       CLOUDY    38  33  82 N21G26    30.04R
DAYTON         CLOUDY    36  32  85 N22G31    30.03R
WRIGHT-PAT AFB FLURRIES  36  33  87 N16G26    30.01R
DAYTON GENERAL CLOUDY    37  32  82 N20G29    30.00R
WILMINGTON     LGT RAIN  36  32  85 N22G31    29.97R
$$

OHZ036-037-039>041-045>050-054>059-063>069-073>076-082>088-010400-
  CENTRAL AND SOUTHEAST OHIO

CITY           SKY/WX    TMP DP  RH WIND       PRES   REMARKS
COLUMBUS       LGT RAIN  39  38  96 N20G30    29.93R
OSU AIRPORT    CLOUDY    37  34  89 N17G24    29.94R
BOLTON FIELD   CLOUDY    37  35  94 N20G29    29.95R
RICKENBACK AFB DRIZZLE   39  36  90 N16G24    29.93R
NEWARK         LGT RAIN  42  39  89 N8        29.90S
MARION         MIX PCPN  36  33  89 N22G29    29.96R
LANCASTER      CLOUDY    42  38  85 N9        29.92R
ZANESVILLE     LGT RAIN  41  39  93 N3        29.90R FOG
NEW PHILLY     LGT RAIN  44  41  89 CALM      29.91R
$$



USA.gov is the U.S. government's official web portal to all federal, state and local government web resources and services.